This is the latest recevied weather packets stored in our database for station/object K4AVM-13. If no packets are shown the sender has not sent any weather packets the latest 10 day(s).
| Time | Temp. | Humidity | Pressure | Rain* | Wind** | Luminosity | Snow |
|---|---|---|---|---|---|---|---|
| 1777551567 | 15.56° C | 92% | 1010.1 hPa | 0 mm | - | 114 W/m² | - |
| 1777551264 | 15° C | 97% | 1009.9 hPa | 0 mm | - | 141 W/m² | - |
| 1777550961 | 15° C | 99% | 1010.1 hPa | 0 mm | - | 138 W/m² | - |
| 1777550657 | 15° C | 99% | 1010.4 hPa | 0 mm | - | 123 W/m² | - |
| 1777550353 | 14.44° C | 99% | 1010.4 hPa | 0 mm | - | 104 W/m² | - |
| 1777550049 | 14.44° C | 99% | 1010.4 hPa | 0 mm | - | 80 W/m² | - |
| 1777549747 | 14.44° C | 99% | 1010.8 hPa | 0 mm | - | 64 W/m² | - |
| 1777549441 | 14.44° C | 99% | 1011.1 hPa | 0 mm | - | 64 W/m² | - |
| 1777549138 | 14.44° C | 99% | 1010.9 hPa | 0 mm | - | 46 W/m² | - |
| 1777548835 | 14.44° C | 99% | 1010.6 hPa | 0 mm | - | 45 W/m² | - |
| 1777548532 | 14.44° C | 99% | 1010.5 hPa | 0 mm | - | 72 W/m² | - |
| 1777548229 | 14.44° C | 99% | 1010.6 hPa | 0 mm | - | 53 W/m² | - |
| 1777547926 | 14.44° C | 99% | 1010.4 hPa | 0 mm | - | 58 W/m² | - |
| 1777547621 | 14.44° C | 99% | 1010.2 hPa | 0 mm | - | 39 W/m² | - |
| 1777547318 | 14.44° C | 99% | 1010.3 hPa | 0 mm | - | 46 W/m² | - |
| 1777547016 | 13.89° C | 99% | 1010.5 hPa | 0 mm | - | 39 W/m² | - |
| 1777546713 | 13.89° C | 99% | 1010.1 hPa | 0 mm | - | 43 W/m² | - |
| 1777546410 | 13.89° C | 99% | 1010.2 hPa | 0 mm | - | 32 W/m² | - |
| 1777546106 | 13.89° C | 99% | 1010 hPa | 0 mm | - | 23 W/m² | - |
| 1777545802 | 13.89° C | 99% | 1009.5 hPa | 0 mm | - | 19 W/m² | - |
| 1777545500 | 13.89° C | 99% | 1009.8 hPa | 0 mm | - | 12 W/m² | - |
| 1777545196 | 13.89° C | 99% | 1009.6 hPa | 0 mm | - | 9 W/m² | - |
| 1777544894 | 13.89° C | 99% | 1009.5 hPa | 0 mm | - | 8 W/m² | - |
| 1777544590 | 13.89° C | 99% | 1009.2 hPa | 0 mm | - | 5 W/m² | - |
| 1777544287 | 13.89° C | 99% | 1009.3 hPa | 0 mm | - | 3 W/m² | - |
* Rain latest hour (hover to see other rain measurements)
** Current wind speed in m/s (hover to see current wind gust speed)